Latest Weather Observations for Yarram Airport

IDV60801

Issued at 11:35 pm EST Saturday 20 September 2014 (issued every 30 minutes, with the page automatically refreshed every 10 minutes)

About weather observations | Map of weather stations | Latest weather observations for VIC | Other Formats
Station Details ID: 085151 Name: YARRAM AIRPORT Lat: -38.56 Lon: 146.75 Height: 17.9 m
Data from the previous 72 hours. | See also: Recent months at Yarram Airport
Date/Time
EST
Temp
°C
App
Temp
°C
Dew
Point
Rel
Hum
%
Delta-T
°C
Wind Press
QNH
hPa
Press
MSL
hPa
Rain
since 9 am
mm
Dir
 
Spd
km/h
Gust
km/h
Spd
kts
Gust
kts
20/11:30pm 8.0 4.4 6.8 92 0.6 WNW 15 17 8 9 1029.4 1029.4 0.0
20/11:00pm 8.5 4.6 7.0 90 0.7 W 17 20 9 11 1029.3 1029.3 0.0
20/10:30pm 8.4 4.8 6.7 89 0.8 W 15 19 8 10 1029.2 1029.2 0.0
20/10:00pm 9.1 4.8 7.1 87 0.9 W 19 22 10 12 1029.3 1029.3 0.0
20/09:30pm 9.9 6.5 7.8 87 1.0 W 15 19 8 10 1029.4 1029.4 0.0
20/09:00pm 9.6 6.9 7.2 85 1.1 WNW 11 15 6 8 1029.4 1029.4 0.0
20/08:30pm 10.3 7.0 7.9 85 1.2 W 15 19 8 10 1029.5 1029.5 0.0
20/08:00pm 10.3 7.4 8.2 87 1.0 W 13 20 7 11 1029.6 1029.6 0.0
20/07:30pm 9.4 6.8 7.7 89 0.8 W 11 15 6 8 1029.3 1029.3 0.0
20/07:00pm 10.8 7.5 8.2 84 1.3 W 15 20 8 11 1029.0 1029.0 0.0
20/06:30pm 10.8 7.5 8.2 84 1.3 W 15 19 8 10 1028.5 1028.5 0.0
20/06:00pm 11.5 7.2 7.8 78 1.8 WSW 20 26 11 14 1028.4 1028.4 0.0
20/05:30pm 12.2 7.4 8.9 80 1.7 WSW 24 30 13 16 1028.0 1028.0 0.0
20/05:00pm 12.4 7.7 9.1 80 1.6 WSW 24 32 13 17 1027.5 1027.5 0.0
20/04:30pm 12.5 7.0 9.1 80 1.7 WSW 28 35 15 19 1027.2 1027.2 0.0
20/04:00pm 14.1 9.2 10.1 77 2.1 WSW 26 32 14 17 1026.8 1026.9 0.0
20/03:30pm 14.1 8.1 8.7 70 2.7 WSW 30 37 16 20 1026.5 1026.6 0.0
20/03:00pm 13.4 8.6 8.9 74 2.3 WSW 24 35 13 19 1026.4 1026.5 0.0
20/02:30pm 15.1 9.5 8.8 66 3.2 WSW 28 37 15 20 1026.3 1026.4 0.0
20/02:00pm 15.4 10.1 9.7 69 2.9 WSW 28 33 15 18 1026.0 1026.1 0.0
20/01:30pm 15.2 9.5 9.8 70 2.8 WSW 30 37 16 20 1026.0 1026.1 0.0
20/01:00pm 15.2 9.9 9.8 70 2.8 WSW 28 37 15 20 1026.0 1026.1 0.0
20/12:30pm 14.6 9.3 10.0 74 2.4 SW 28 35 15 19 1026.2 1026.3 0.0
20/12:00pm 15.0 10.4 9.8 71 2.7 WSW 24 33 13 18 1026.3 1026.4 0.0
20/11:30am 15.1 10.5 9.7 70 2.8 WSW 24 32 13 17 1026.5 1026.6 0.0
20/11:00am 13.9 9.0 8.3 69 2.8 WSW 24 30 13 16 1026.6 1026.7 0.0
20/10:30am 13.6 8.8 8.7 72 2.5 WSW 24 30 13 16 1026.7 1026.8 0.0
20/10:00am 13.7 9.3 9.0 73 2.4 WSW 22 32 12 17 1026.8 1026.9 0.0
20/09:30am 14.0 9.4 9.6 75 2.3 WSW 24 33 13 18 1026.8 1026.9 0.0
20/09:00am 13.6 9.6 10.6 82 1.6 WSW 22 28 12 15 1026.7 1026.8 0.0
20/08:30am 12.8 8.4 10.3 85 1.3 WSW 24 30 13 16 1026.4 1026.5 0.0
20/08:00am 12.1 8.6 10.2 88 1.0 W 19 24 10 13 1026.2 1026.3 0.0
20/07:30am 11.0 8.5 9.8 92 0.6 W 13 17 7 9 1026.0 1026.1 0.0
20/07:00am 9.5 6.4 8.7 95 0.4 W 15 17 8 9 1025.8 1025.9 0.0
20/06:30am 8.5 5.5 7.9 96 0.3 W 13 15 7 8 1025.4 1025.5 0.0
20/06:00am 8.3 4.5 7.7 96 0.3 W 17 19 9 10 1024.8 1024.9 0.0
20/05:30am 8.6 5.2 7.8 95 0.4 W 15 19 8 10 1024.4 1024.5 0.0
20/05:00am 8.9 5.2 8.0 94 0.4 W 17 20 9 11 1024.0 1024.1 0.0
20/04:30am 9.5 5.4 8.6 94 0.4 W 20 26 11 14 1023.7 1023.8 0.0
20/04:00am 9.6 6.2 9.0 96 0.3 W 17 20 9 11 1023.6 1023.7 0.0
20/03:30am 9.3 5.3 8.2 93 0.5 W 19 26 10 14 1023.6 1023.7 0.0
20/03:00am 9.8 5.6 8.4 91 0.7 W 20 28 11 15 1023.5 1023.6 0.0
20/02:30am 9.1 5.3 7.5 90 0.8 W 17 22 9 12 1023.4 1023.5 0.0
20/02:00am 9.5 5.4 7.8 89 0.8 W 19 26 10 14 1023.4 1023.5 0.0
20/01:30am 9.4 5.9 7.3 87 1.0 W 15 17 8 9 1023.7 1023.8 0.0
20/01:00am 9.8 5.4 7.6 86 1.0 W 20 26 11 14 1023.8 1023.9 0.0
20/12:30am 9.1 4.9 7.4 89 0.8 W 19 26 10 14 1023.7 1023.8 0.0
20/12:00am 9.1 4.3 7.5 90 0.8 W 22 28 12 15 1023.5 1023.6 0.0
 
Date/Time
EST
Temp
°C
App
Temp
°C
Dew
Point
Rel
Hum
%
Delta-T
°C
Wind Press
QNH
hPa
Press
MSL
hPa
Rain
since 9 am
mm
Dir
 
Spd
km/h
Gust
km/h
Spd
kts
Gust
kts
19/11:30pm 8.9 5.1 7.5 91 0.7 W 17 20 9 11 1023.7 1023.8 0.0
19/11:00pm 9.3 4.9 7.6 89 0.8 W 20 24 11 13 1023.7 1023.8 0.0
19/10:30pm 10.3 7.0 8.2 87 1.0 W 15 20 8 11 1023.8 1023.9 0.0
19/10:00pm 10.1 6.5 8.2 88 0.9 W 17 22 9 12 1023.8 1023.9 0.0
19/09:30pm 10.9 7.0 8.7 86 1.1 W 19 24 10 13 1023.8 1023.9 0.0
19/09:00pm 11.0 6.8 8.4 84 1.3 W 20 26 11 14 1023.8 1023.9 0.0
19/08:30pm 10.2 6.2 8.3 88 0.9 W 19 24 10 13 1023.7 1023.8 0.0
19/08:00pm 9.9 6.1 7.7 86 1.0 W 17 20 9 11 1023.5 1023.6 0.0
19/07:30pm 10.3 6.0 7.7 84 1.2 W 20 28 11 15 1023.2 1023.3 0.0
19/07:00pm 10.6 5.5 7.5 81 1.5 WSW 24 30 13 16 1023.0 1023.1 0.0
19/06:30pm 10.7 6.3 7.4 80 1.6 W 20 28 11 15 1022.7 1022.8 0.0
19/06:00pm 11.1 6.3 7.2 77 1.9 W 22 32 12 17 1022.6 1022.7 0.0
19/05:30pm 12.4 7.0 7.9 74 2.2 WSW 26 39 14 21 1022.2 1022.3 0.0
19/05:00pm 12.5 6.5 8.8 78 1.8 WSW 30 43 16 23 1022.2 1022.3 0.0
19/04:30pm 12.7 6.9 8.0 73 2.3 WSW 28 37 15 20 1021.8 1021.9 0.0
19/04:00pm 12.9 7.2 8.2 73 2.3 WSW 28 41 15 22 1021.7 1021.8 0.0
19/03:30pm 13.0 6.4 8.7 75 2.2 SW 33 43 18 23 1021.7 1021.8 0.0
19/03:00pm 14.5 7.8 8.0 65 3.2 WSW 33 44 18 24 1021.6 1021.7 0.0
19/02:30pm 14.1 7.3 7.6 65 3.2 WSW 33 46 18 25 1021.6 1021.7 0.0
19/02:00pm 13.9 7.3 7.9 67 3.0 WSW 32 41 17 22 1021.8 1021.9 0.0
19/01:30pm 13.5 6.5 8.6 72 2.5 SW 35 46 19 25 1022.0 1022.1 0.0
19/01:00pm 13.5 7.1 8.6 72 2.4 WSW 32 41 17 22 1022.2 1022.3 0.0
19/12:44pm 14.1 7.7 8.7 70 2.7 WSW 32 52 17 28 1022.1 1022.2 0.0
19/12:30pm 15.0 8.5 10.2 73 2.5 WSW 35 48 19 26 1022.1 1022.2 0.0
19/12:00pm 14.7 7.7 9.9 73 2.5 WSW 37 52 20 28 1022.3 1022.4 0.0
19/11:30am 13.2 5.6 8.9 75 2.2 WSW 39 52 21 28 1022.4 1022.5 0.0
19/11:00am 13.1 7.1 8.6 74 2.2 WSW 30 37 16 20 1022.3 1022.4 0.0
19/10:30am 12.4 6.6 9.4 82 1.5 WSW 30 41 16 22 1022.5 1022.6 0.0
19/10:27am 12.0 5.6 9.2 83 1.4 WSW 33 52 18 28 1022.5 1022.6 0.0
19/10:18am 12.7 4.3 9.0 78 1.9 WSW 43 52 23 28 1022.7 1022.8 0.0
19/10:00am 11.9 6.9 9.5 85 1.2 W 26 35 14 19 1022.7 1022.8 0.0
19/09:30am 11.3 5.0 9.0 86 1.1 WSW 32 43 17 23 1022.7 1022.8 0.0
19/09:00am 11.2 6.2 9.6 90 0.8 SW 26 41 14 22 1022.9 1023.0 0.8
19/08:30am 11.8 6.6 8.8 82 1.5 W 26 37 14 20 1022.6 1022.7 0.8
19/08:00am 11.5 7.2 9.2 86 1.1 W 22 30 12 16 1022.4 1022.5 0.8
19/07:30am 10.0 5.9 8.6 91 0.7 WNW 20 24 11 13 1022.3 1022.4 0.8
19/07:00am 9.2 5.8 7.6 90 0.8 WNW 15 20 8 11 1022.2 1022.3 0.8
19/06:30am 8.5 4.3 7.3 92 0.6 WNW 19 24 10 13 1022.0 1022.1 0.8
19/06:00am 8.3 4.4 7.2 93 0.5 WNW 17 20 9 11 1021.9 1022.0 0.8
19/05:30am 8.3 4.1 7.5 95 0.4 WNW 19 24 10 13 1021.6 1021.7 0.8
19/05:00am 8.2 4.4 7.4 95 0.4 WNW 17 20 9 11 1021.7 1021.8 0.8
19/04:30am 7.8 4.6 6.9 94 0.4 W 13 19 7 10 1021.5 1021.6 0.8
19/04:00am 8.1 4.6 7.0 93 0.5 W 15 20 8 11 1021.5 1021.6 0.4
19/03:30am 8.4 4.0 6.7 89 0.8 W 19 22 10 12 1021.4 1021.5 0.2
19/03:00am 8.4 3.4 6.4 87 0.9 W 22 28 12 15 1021.4 1021.5 0.2
19/02:30am 8.5 3.0 6.0 84 1.1 W 24 30 13 16 1021.6 1021.7 0.2
19/02:00am 8.0 3.1 5.3 83 1.2 W 20 24 11 13 1021.5 1021.6 0.2
19/01:30am 8.7 4.1 5.6 81 1.4 W 19 24 10 13 1022.0 1022.1 0.2
19/01:00am 7.5 3.1 4.5 81 1.3 W 17 20 9 11 1022.0 1022.1 0.2
19/12:30am 7.5 3.1 4.5 81 1.3 W 17 20 9 11 1022.2 1022.3 0.2
19/12:00am 8.0 3.2 4.9 81 1.4 W 19 24 10 13 1022.3 1022.4 0.2
 
Date/Time
EST
Temp
°C
App
Temp
°C
Dew
Point
Rel
Hum
%
Delta-T
°C
Wind Press
QNH
hPa
Press
MSL
hPa
Rain
since 9 am
mm
Dir
 
Spd
km/h
Gust
km/h
Spd
kts
Gust
kts
18/11:30pm 8.5 3.7 5.6 82 1.3 W 20 26 11 14 1022.5 1022.6 0.2
18/11:00pm 8.0 3.4 5.6 85 1.1 W 19 24 10 13 1022.7 1022.8 0.2
18/10:30pm 8.2 3.6 5.7 84 1.1 W 19 24 10 13 1022.8 1022.9 0.2
18/10:00pm 7.6 3.6 5.1 84 1.1 W 15 19 8 10 1022.8 1022.9 0.2
18/09:30pm 8.0 3.7 5.3 83 1.2 W 17 20 9 11 1022.8 1022.9 0.2
18/09:00pm 8.0 4.1 5.3 83 1.2 WNW 15 19 8 10 1022.8 1022.9 0.2
18/08:30pm 7.4 3.8 5.2 86 1.0 NW 13 17 7 9 1022.5 1022.6 0.2
18/08:00pm 7.1 3.6 5.3 88 0.8 NW 13 17 7 9 1022.5 1022.6 0.2
18/07:30pm 7.6 4.1 5.6 87 0.9 WNW 13 15 7 8 1022.5 1022.6 0.2
18/07:00pm 8.4 5.4 6.2 86 1.0 WNW 11 15 6 8 1022.3 1022.4 0.2
18/06:30pm 9.3 5.0 7.1 86 1.0 W 19 22 10 12 1021.9 1022.0 0.2
18/06:00pm 9.7 5.4 7.1 84 1.2 W 19 24 10 13 1021.6 1021.7 0.2
18/05:30pm 10.4 5.0 7.8 84 1.3 WSW 26 43 14 23 1021.3 1021.4 0.2
18/05:00pm 11.5 4.9 7.6 77 1.9 WSW 32 41 17 22 1021.0 1021.1 0.0
18/04:37pm 11.7 4.6 8.2 79 1.7 SW 35 54 19 29 1020.7 1020.8 0.0
18/04:30pm 12.0 5.2 7.9 76 2.0 WSW 33 43 18 23 1020.6 1020.7 0.0
18/04:00pm 12.4 5.2 7.5 72 2.4 WSW 35 50 19 27 1020.4 1020.5 0.0
18/03:30pm 13.0 5.5 6.4 64 3.1 WSW 35 44 19 24 1020.2 1020.3 0.0
18/03:00pm 13.4 6.4 6.7 64 3.2 WSW 33 46 18 25 1020.2 1020.3 0.0
18/02:30pm 13.7 6.9 7.0 64 3.3 WSW 32 43 17 23 1020.2 1020.3 0.0
18/02:00pm 13.5 5.9 5.9 60 3.6 WSW 35 44 19 24 1020.2 1020.3 0.0
18/01:31pm 12.5 5.8 5.7 63 3.2 WSW 30 48 16 26 1020.0 1020.1 0.0
18/01:30pm 12.7 6.3 5.4 61 3.4 W 28 41 15 22 1020.1 1020.2 0.0
18/01:00pm 13.2 6.5 7.4 68 2.8 SW 32 44 17 24 1020.3 1020.4 0.0
18/12:30pm 13.4 6.5 6.5 63 3.3 SW 32 43 17 23 1020.3 1020.4 0.0
18/12:00pm 13.3 6.2 8.0 70 2.6 WSW 35 44 19 24 1020.3 1020.4 0.0
18/11:30am 12.3 5.4 7.2 71 2.5 WSW 33 43 18 23 1020.2 1020.3 0.0
18/11:00am 13.0 5.9 5.7 61 3.4 WSW 32 44 17 24 1020.3 1020.4 0.0
18/10:30am 12.4 5.0 5.1 61 3.4 WSW 33 44 18 24 1020.3 1020.4 0.0
18/10:00am 12.4 6.7 8.3 76 2.0 W 28 37 15 20 1020.3 1020.4 0.0
18/09:30am 11.4 6.4 7.9 79 1.7 WSW 24 33 13 18 1020.1 1020.2 0.0
18/09:00am 11.3 7.1 7.4 77 1.9 W 19 24 10 13 1019.9 1020.0 4.8
18/08:30am 10.0 5.8 7.3 83 1.3 W 19 24 10 13 1019.8 1019.9 4.8
18/08:00am 8.9 5.3 6.9 87 0.9 W 15 20 8 11 1019.7 1019.8 4.8
18/07:30am 9.3 4.8 6.9 85 1.1 WNW 20 26 11 14 1019.4 1019.5 4.6
18/07:00am 8.4 4.3 6.0 85 1.1 WNW 17 22 9 12 1019.1 1019.2 4.6
18/06:30am 8.2 3.7 6.2 87 0.9 W 19 28 10 15 1018.7 1018.8 4.6
18/06:00am 7.7 3.9 6.0 89 0.8 W 15 22 8 12 1018.2 1018.2 4.6
18/05:30am 7.4 4.0 5.9 90 0.7 WSW 13 15 7 8 1017.9 1017.9 4.4
18/05:00am 7.3 3.8 5.6 89 0.8 W 13 17 7 9 1017.5 1017.5 4.2
18/04:30am 7.6 2.9 6.1 90 0.7 W 20 30 11 16 1017.0 1017.0 4.2
18/04:01am 7.9 1.6 5.9 87 0.9 W 28 50 15 27 1016.6 1016.6 4.2
18/04:00am 7.7 1.4 5.7 87 0.9 W 28 37 15 20 1016.6 1016.6 4.2
18/03:30am 7.1 1.5 5.3 88 0.8 W 24 30 13 16 1016.3 1016.3 4.2
18/03:00am 7.6 2.5 5.9 89 0.8 W 22 32 12 17 1016.2 1016.2 4.2
18/02:30am 7.9 3.2 5.9 87 0.9 WSW 20 28 11 15 1016.1 1016.1 4.0
18/02:00am 7.5 0.3 6.1 91 0.6 WSW 33 43 18 23 1016.0 1016.0 4.0
18/01:30am 7.5 0.6 6.4 93 0.5 WSW 32 39 17 21 1016.4 1016.4 3.4
18/01:00am 7.1 2.2 4.9 86 1.0 W 20 30 11 16 1016.1 1016.1 2.8
18/12:30am 7.5 1.5 5.1 85 1.1 WNW 26 35 14 19 1016.2 1016.2 2.8
18/12:00am 7.6 2.3 5.2 85 1.1 WNW 22 30 12 16 1016.0 1016.0 2.8

Other Formats:

Comma delimited format used in spreadsheet applications
http://www.bom.gov.au/fwo/IDV60801/IDV60801.95890.axf

JavaScript Object Notation format (JSON) in row-major order
http://www.bom.gov.au/fwo/IDV60801/IDV60801.95890.json